• Join FlightAware (Why Join?)
  • Login
  • US Flag 
08:28PM EST


 

Airport Tracker/Info


-or-


 

Live Flight TrackerFlight Track Log ✈ ASQ2542 ✈ 10-Apr-2013 ✈ KCRP - KDFW

Flight Track Log - Related Links

Times and Time Zones

All times are in EDT time to prevent confusion due to time zone crossing. See the ASQ2542 flight status page for this flight to view local times or setup timezone preferences in your user account.

Time Position Orientation Groundspeed Altitude Reporting Facility
EDT Latitude Longitude Course Direction KTS MPH feet Rate Location/Type
05:40PM 27.7797 -97.5183 315° West 156 180 700  Level Houston Center
05:41PM 27.7964 -97.5372 315° West 161 185 1,700 2,374 Climbing Houston Center
05:42PM 27.8472 -97.5778 325° Northwest 214 246 4,300 2,260 Climbing Houston Center
05:42PM 27.8506 -97.5789 344° North 216 249 4,600 1,385 Climbing Houston Center
05:43PM 27.9175 -97.6172 333° Northwest 269 310 6,100 1,887 Climbing Houston Center
05:44PM 27.9942 -97.6575 335° Northwest 276 318 8,500 2,208 Climbing Houston Center
05:45PM 28.0344 -97.7506 296° West 294 338 10,700 1,392 Climbing Houston Center
05:46PM 28.0731 -97.8394 296° West 306 352 11,400 1,065 Climbing Houston Center
05:47PM 28.1156 -97.9383 296° West 331 381 12,900 1,403 Climbing Houston Center
05:48PM 28.1644 -98.0356 300° West 350 403 14,300 1,258 Climbing Houston Center
05:49PM 28.2894 -98.0792 343° North 393 452 15,500 1,065 Climbing Houston Center
05:50PM 28.4019 -98.1122 346° North 410 472 16,500 968 Climbing Houston Center
05:51PM 28.5044 -98.1400 347° North 413 475 17,500 1,161 Climbing Houston Center
05:53PM 28.6408 -98.1781 346° North 417 480 18,900 1,152 Climbing Houston Center
05:54PM 28.7575 -98.2117 346° North 428 493 19,900 1,008 Climbing Houston Center
05:55PM 28.8811 -98.2461 346° North 424 488 21,000 1,016 Climbing Houston Center
05:56PM 28.9969 -98.2781 346° North 426 490 22,000 968 Climbing Houston Center
05:57PM 29.1206 -98.3128 346° North 425 489 23,000 484 Climbing Houston Center
05:58PM 29.2389 -98.3464 346° North 436 502 23,000 194 Level Houston Center
05:59PM 29.3722 -98.3831 347° North 457 526 23,400 677 Climbing Houston Center
06:00PM 29.4942 -98.4164 347° North 453 521 24,400 864 Climbing Houston Center
06:01PM 29.6147 -98.4522 346° North 452 520 25,200 720 Climbing Houston Center
06:02PM 29.7522 -98.4447 North 471 542 25,900 677 Climbing Houston Center
06:03PM 29.8939 -98.4225 North 478 550 26,600 629 Climbing Houston Center
06:04PM 30.0269 -98.4036 North 483 556 27,200 629 Climbing Houston Center
06:05PM 30.1703 -98.3814 North 483 556 27,900 387 Climbing Houston Center
06:06PM 30.3050 -98.3625 North 486 559 28,000 48 Climbing Houston Center
06:07PM 30.4358 -98.3439 North 501 577 28,000  Level Houston Center
06:08PM 30.5808 -98.3231 North 513 590 28,000 -384 Level Houston Center
06:09PM 30.7244 -98.3011 North 513 590 27,200 -968 Descending Houston Center
06:10PM 30.8933 -98.2775 North 515 593 26,000 -1,063 Descending Houston Center
06:10PM 30.9200 -98.2753 North 519 597 25,800 -779 Descending Fort Worth Center
06:11PM 31.0600 -98.2547 North 514 592 25,000 -850 Descending Fort Worth Center
06:12PM 31.2044 -98.2319 North 514 592 24,100 -500 Descending Fort Worth Center
06:13PM 31.3444 -98.2064 North 514 592 24,000 -50 Descending Fort Worth Center
06:14PM 31.4908 -98.1319 23° Northeast 507 583 24,000  Level Fort Worth Center
06:15PM 31.6269 -98.0575 25° Northeast 518 596 24,000 -350 Level Fort Worth Center
06:16PM 31.7611 -97.9850 25° Northeast 525 604 23,300 -1,835 Descending Fort Worth Center
06:17PM 31.8908 -97.9125 25° Northeast 520 598 20,300 -2,750 Descending Fort Worth Center
06:18PM 32.0017 -97.8494 26° Northeast 497 572 17,800 -2,824 Descending Fort Worth Center
06:19PM 32.1356 -97.7764 25° Northeast 480 552 14,700 -2,750 Descending Fort Worth Center
06:20PM 32.2381 -97.7203 25° Northeast 466 536 12,300 -2,050 Descending Fort Worth Center
06:21PM 32.3361 -97.6617 27° Northeast 385 443 10,600 -1,550 Descending Fort Worth Center
06:22PM 32.4114 -97.5981 35° Northeast 332 382 9,200 -1,750 Descending Fort Worth Center
06:23PM 32.4556 -97.5144 58° Northeast 302 348 7,100 -1,750 Descending Fort Worth Center
06:24PM 32.4722 -97.4306 77° East 285 328 5,700 -1,050 Descending Fort Worth Center
06:25PM 32.5161 -97.3469 58° Northeast 269 310 5,000 -350 Descending Fort Worth Center
06:26PM 32.5536 -97.2778 57° Northeast 269 310 5,000  Level Fort Worth Center
06:27PM 32.6014 -97.1914 57° Northeast 279 321 5,000  Level Fort Worth Center
06:28PM 32.6369 -97.1272 57° Northeast 271 312 5,000  Level Fort Worth Center
06:29PM 32.6722 -97.0681 55° Northeast 219 252 5,000 -600 Level Fort Worth Center
06:30PM 32.7158 -97.0553 14° North 173 199 3,800 -1,000 Descending Fort Worth Center
06:31PM 32.7619 -97.0553 360° North 168 193 3,000 -880 Descending Fort Worth Center
06:32PM 32.7833 -97.0500 12° North 156 180 2,700 -880 Descending Dallas / Fort Worth TRACON
06:33PM 32.8167 -97.0500 360° North 143 165 1,900 -744 Descending Dallas / Fort Worth TRACON
06:34PM 32.8500 -97.0500 360° North 131 151 1,200 -689 Descending Dallas / Fort Worth TRACON
06:36PM 32.8833 -97.0333 29° Northeast  Level FlightAware Approximate
06:43PM 32.8968 -97.0380 29° Northeast  Level Estimated
06:44PM 32.8968 -97.0380 29° Northeast  Level Estimated